Miscellaneous Local Product
Issued by NWS Hastings, NE

Home | Current Version | Previous Version | Graphics & Text | Print | Product List | Glossary On
Versions: 1 2 3 4 5 6 7 8 9 10 11 12 13 14 15 16 17 18 19 20 21 22 23 24 25 26 27 28 29 30 31 32 33 34 35 36 37 38 39 40 41 42 43 44 45 46 47 48 49 50
361
AXUS43 KGID 011402
MISGRI

GID CWA HOURLY WEATHER ROUNDUP
NATIONAL WEATHER SERVICE HASTINGS NE
800 AM CST THU DEC 01 2016

NOTE: "FAIR" INDICATES FEW OR NO CLOUDS BELOW 12,000 FEET WITH NO
SIGNIFICANT WEATHER AND/OR OBSTRUCTIONS TO VISIBILITY.

...SOUTH CENTRAL NEBRASKA...

CITY           SKY/WX    TMP DP  RH WIND       PRES   REMARKS
GRAND ISLAND   CLEAR     23  20  88 W7        30.00R WCI  15
HASTINGS       CLEAR     21  18  88 W5        30.01R WCI  15
KEARNEY        CLEAR     25  16  68 W6        30.00R WCI  18
ORD            CLOUDY    28  21  75 W6        29.97R WCI  22
YORK           CLOUDY    25  23  93 NW8       30.00R WCI  16
AURORA         CLEAR     20  18  91 W7        29.99S WCI  11
LEXINGTON      CLEAR     16  13  88 NW5       30.00R WCI   9
HOLDREGE       CLEAR     20  16  83 W6        30.00S WCI  13
HEBRON         CLEAR     22  19  87 CALM      30.04R

...NEBRASKA PANHANDLE...

CITY           SKY/WX    TMP DP  RH WIND       PRES   REMARKS
CHADRON        CLEAR     14   9  80 SW9       29.96R WCI   2
ALLIANCE       CLOUDY     4   1  88 W8        29.94R WCI  -9
SCOTTSBLUFF    CLOUDY    13   8  81 NW5       29.96R WCI   5
SIDNEY         CLOUDY    22  12  65 W12       29.96R WCI  10

...WESTERN AND NORTH CENTRAL NEBRASKA...

CITY           SKY/WX    TMP DP  RH WIND       PRES   REMARKS
VALENTINE      CLOUDY    26  20  77 W5        29.95R WCI  20
AINSWORTH      CLOUDY    27  23  85 W5        29.96R WCI  21
ONEILL         CLOUDY    28  24  85 W6        29.97R WCI  22
BROKEN BOW     CLEAR     22  19  89 SW3       29.97R
IMPERIAL       CLOUDY    20  10  65 W8        29.98S WCI  10
NORTH PLATTE   CLEAR     13   9  84 NW6       29.99R WCI   4
MCCOOK         CLEAR     17  11  77 SW6       30.01S WCI   9

...EASTERN NEBRASKA...

CITY           SKY/WX    TMP DP  RH WIND       PRES   REMARKS
NORFOLK        CLOUDY    30  23  75 NW10      29.96R WCI  21
SO SIOUX CITY  CLOUDY    34  28  79 NW9       29.95R WCI  27
TEKAMAH        CLOUDY    32  26  78 NW13      29.97R WCI  22
COLUMBUS       CLOUDY    30  21  69 SW6       29.99R WCI  24
ALBION         CLOUDY    29  23  78 NW8       29.98R WCI  21
OMAHA EPPLEY   CLOUDY    34  25  69 NW9       29.98R WCI  27
OFFUTT AFB     CLOUDY    33  26  75 NW9       29.98R WCI  26
MILLARD        MOCLDY    33  25  73 NW9       29.98S WCI  25
LINCOLN        CLOUDY    31  23  72 W9        30.02R WCI  23
NEBRASKA CITY  CLOUDY    30  24  76 W8        30.00R WCI  23
BEATRICE       CLEAR     21  19  89 W5        30.02R WCI  15
FALLS CITY     CLOUDY    28  23  81 W8        30.02R WCI  20

...NORTHERN KANSAS...

CITY           SKY/WX    TMP DP  RH WIND       PRES   REMARKS
GOODLAND       CLOUDY    16   7  67 W6        29.99R WCI   7
HILL CITY      CLEAR     15  10  80 W6        30.04R WCI   6
NORTON         SUNNY     16   9  73 SW8       30.01R WCI   5
PHILLIPSBURG   CLEAR     19  14  79 W8        30.03F WCI   9
SMITH CENTER   CLEAR     12  10  92 NW3       30.03F
BELOIT         CLEAR     19  18  93 CALM      30.04S
HAYS           CLOUDY    15  10  80 W3        30.04R
RUSSELL        CLOUDY    15  11  83 S6        30.03R WCI   6
CONCORDIA      CLEAR     23  19  85 W7        30.04R WCI  15
SALINA         CLEAR     21  17  84 S7        30.07R WCI  12
TOPEKA         CLEAR     27  22  81 SW5       30.07R WCI  22



USA.gov is the U.S. government's official web portal to all federal, state and local government web resources and services.